Alexandria, LA

11:32 PM CDT on June 28, 2017 (GMT -0500)
Alexandria International

Weather History for KAEX - November, 2011

Change the Weather History Date:

Saturday, November 12, 2011

  Actual Average Record
Temperature  
Mean Temperature 56 °F 59 °F  
Max Temperature 74 °F 71 °F 87 °F (1896)
Min Temperature 38 °F 46 °F 25 °F (1950)
Degree Days  
Heating Degree Days 9 7  
Month to date heating degree days 93 70  
Since 1 July heating degree days 197 143  
Growing Degree Days 6 (Base 50)    
Moisture  
Dew Point 47 °F    
Average Humidity 67    
Maximum Humidity 85    
Minimum Humidity 49    
Precipitation  
Precipitation 0.00 in 0.17 in 2.51 in (1925)
Month to date precipitation 0.56 1.58  
Year to date precipitation 26.99 45.89  
Snow  
Snow 0.00 in - 0.00 in ()
Month to date snowfall 0.0  
Since 1 July snowfall 0.0  
Since 1 September snowfall 0.0  
Snow Depth 0.00 in    
Sea Level Pressure  
Sea Level Pressure 30.11 in    
Wind  
Wind Speed 9 mph (SSE)    
Max Wind Speed 23 mph    
Max Gust Speed 30 mph    
Visibility 10 miles    
Events      
T = Trace of Precipitation, MM = Missing Value Source: NWS Daily Summary

Daily Weather History Graph

Daily Weather History Graph

Search for Another Location

Airport or City:

Trip Planner

Search our weather history database for the weather conditions in past years. The results will help you decide how hot, cold, wet, or windy it might be!

Date:

Astronomy

Nov. 12, 2011 Rise Set
Actual Time 6:34 AM CST 5:13 PM CST
Civil Twilight 6:09 AM CST 5:38 PM CST
Nautical Twilight 5:40 AM CST 6:08 PM CST
Astronomical Twilight 5:11 AM CST 6:36 PM CST
Moon 6:36 PM CST (11/12) 8:10 AM CST (11/12)
Length of Visible Light 11h 29m
Length of Day
10h 38m
Full, 97% of the Moon is Illuminated
Nov 12
Full
Nov 18
Last Quarter
Nov 25
New
Dec 2
First Quarter
Dec 10
Full

Hourly Weather History & Observations

Time (CST) Temp. Windchill Dew Point Humidity Pressure Visibility Wind Dir Wind Speed Gust Speed Precip Events Conditions
12:53 AM 43.0 °F 41.3 °F 35.1 °F 74% 30.17 in 10.0 mi SE 3.5 mph - N/A   Clear
1:53 AM 42.1 °F 38.4 °F 36.0 °F 79% 30.16 in 10.0 mi SE 5.8 mph - N/A   Clear
2:53 AM 41.0 °F 38.0 °F 36.0 °F 82% 30.16 in 10.0 mi SE 4.6 mph - N/A   Clear
3:53 AM 39.9 °F 35.8 °F 36.0 °F 86% 30.15 in 10.0 mi SE 5.8 mph - N/A   Clear
4:53 AM 41.0 °F 37.1 °F 36.0 °F 82% 30.16 in 10.0 mi SE 5.8 mph - N/A   Clear
5:53 AM 44.1 °F 40.8 °F 39.0 °F 82% 30.16 in 10.0 mi ESE 5.8 mph - N/A   Mostly Cloudy
6:53 AM 44.1 °F 40.1 °F 39.9 °F 85% 30.16 in 10.0 mi SE 6.9 mph - N/A   Clear
7:53 AM 48.0 °F - 42.1 °F 80% 30.17 in 10.0 mi SE 10.4 mph - N/A   Clear
8:53 AM 52.0 °F - 44.1 °F 74% 30.18 in 10.0 mi SE 10.4 mph - N/A   Overcast
9:53 AM 57.9 °F - 46.9 °F 67% 30.19 in 10.0 mi SE 8.1 mph - N/A   Overcast
10:53 AM 64.9 °F - 48.9 °F 56% 30.17 in 10.0 mi SSE 11.5 mph 17.3 mph N/A   Partly Cloudy
11:53 AM 69.1 °F - 51.1 °F 53% 30.15 in 10.0 mi SSE 8.1 mph - N/A   Clear
12:53 PM 72.0 °F - 52.0 °F 49% 30.10 in 10.0 mi South 16.1 mph 24.2 mph N/A   Scattered Clouds
1:53 PM 71.1 °F - 52.0 °F 51% 30.08 in 10.0 mi South 11.5 mph 23.0 mph N/A   Scattered Clouds
2:53 PM 71.1 °F - 52.0 °F 51% 30.06 in 10.0 mi South 15.0 mph 20.7 mph N/A   Scattered Clouds
3:53 PM 71.1 °F - 54.0 °F 55% 30.06 in 10.0 mi SSE 11.5 mph - N/A   Clear
4:53 PM 70.0 °F - 53.1 °F 55% 30.05 in 10.0 mi South 11.5 mph - N/A   Clear
5:53 PM 66.0 °F - 53.1 °F 63% 30.04 in 9.0 mi SSE 6.9 mph - N/A   Clear
6:53 PM 64.9 °F - 54.0 °F 68% 30.04 in 10.0 mi SSE 10.4 mph - N/A   Clear
7:53 PM 64.0 °F - 53.1 °F 67% 30.07 in 10.0 mi South 8.1 mph - N/A   Clear
8:53 PM 62.1 °F - 53.1 °F 72% 30.06 in 10.0 mi SSE 6.9 mph - N/A   Clear
9:53 PM 62.1 °F - 53.1 °F 72% 30.05 in 10.0 mi SSE 11.5 mph - N/A   Clear
10:53 PM 59.0 °F - 54.0 °F 83% 30.04 in 10.0 mi SSE 9.2 mph - N/A   Clear
11:53 PM 60.1 °F - 54.0 °F 80% 30.02 in 10.0 mi SSE 8.1 mph - N/A   Scattered Clouds